Location: Bonnesvalyn
(49.1218°N, 3.3177°E)
Time: 08:11:20
(UTC+00:00)

Cosmos 1814 Rocket - Visible Passes

Search period start: 21 May 2024 00:00
Search period end: 31 May 2024 00:00
Orbit: 743 x 784 km, 74.1° (Epoch: 20 May)

Date Brightness Start Highest point End Pass type
(mag) Time Alt. Az. Time Alt. Az. Time Alt. Az.
21 May 6.8 00:30:34 10° N 00:33:33 15° NE 00:36:33 10° ENE visible
21 May 4.3 02:11:17 10° NNW 02:16:30 72° ENE 02:21:44 10° SSE visible
21 May 7.1 23:53:42 10° NNE 23:54:39 10° NE 23:55:37 10° NE visible
22 May 5.1 01:33:03 10° NNW 01:38:04 45° ENE 01:43:04 10° SE visible
22 May 4.9 03:15:22 10° NW 03:19:50 30° W 03:24:20 10° SSW visible
23 May 5.8 00:54:56 10° N 00:59:30 29° NE 01:04:04 10° ESE visible
23 May 4.3 02:36:41 10° NNW 02:41:41 48° WSW 02:46:43 10° S visible
24 May 6.4 00:16:59 10° N 00:20:48 20° NE 00:24:39 10° E visible
24 May 3.9 01:58:12 10° NNW 02:03:26 80° WSW 02:08:41 10° SSE visible
24 May 6.7 23:39:19 10° N 23:42:01 14° NE 23:44:42 10° ENE visible
25 May 4.4 01:19:52 10° NNW 01:25:04 64° ENE 01:30:17 10° SE visible
25 May 5.4 03:02:46 10° NW 03:06:32 20° W 03:10:20 10° SW visible
26 May 5.2 00:41:39 10° NNW 00:46:35 40° ENE 00:51:32 10° SE visible
26 May 4.8 02:23:49 10° NW 02:28:28 33° WSW 02:32:59 11° SSW visible
27 May 5.9 00:03:35 10° N 00:08:00 27° NE 00:12:26 10° ESE visible
27 May 4.1 01:45:11 10° NNW 01:50:17 55° WSW 01:54:29 15° S visible
27 May 6.4 23:25:40 10° N 23:29:17 18° NE 23:32:54 10° E visible
28 May 4.0 01:06:44 10° NNW 01:12:00 89° WSW 01:16:07 17° SSE visible
28 May 5.8 02:50:34 10° WNW 02:53:10 14° W 02:55:46 10° WSW visible
28 May 6.6 22:48:07 10° NNE 22:50:26 13° NE 22:52:45 10° ENE visible
29 May 4.5 00:28:26 10° NNW 00:33:36 57° ENE 00:37:51 15° SE visible
29 May 5.3 02:11:07 10° NW 02:15:10 23° W 02:17:58 15° SW visible
29 May 5.3 23:50:14 10° N 23:55:05 37° ENE 23:59:39 11° ESE visible
30 May 4.6 01:32:15 10° NW 01:37:04 38° WSW 01:39:46 22° SSW visible
30 May 5.9 23:12:11 10° N 23:16:27 25° NE 23:20:44 10° ESE visible
